,,,PA_Meas_PMT16A,,PR_Meas_QMR101_102,,RH_Meas_QMH101,,SR_Meas_QMS101,,TA_Meas_QMH101,,GenWind,,GenWind,
date,time,status,PA,status,PR,status,RH,status,SR,status,TA,status,DirAvg,status,SpdAvg,
2009-10-23, 00:00:04,VALID,1004.05,VALID,0,VALID,90.6616,VALID,0.100563,VALID,24.9476,VALID,1,VALID,0.517187,
2009-10-23, 00:01:04,VALID,1004.07,VALID,0,VALID,90.4862,VALID,0.100563,VALID,24.9671,VALID,349,VALID,0.727344,
2009-10-23, 00:02:04,VALID,1004.06,VALID,0,VALID,90.2878,VALID,0.100563,VALID,25.0255,VALID,346,VALID,0.530078,
2009-10-23, 00:03:04,VALID,1004.04,VALID,0,VALID,90.036,VALID,0,VALID,25.0839,VALID,340,VALID,0.646484,
2009-10-23, 00:04:04,VALID,1004.05,VALID,0,VALID,89.6317,VALID,0.100563,VALID,25.1618,VALID,329,VALID,0.25625,
2009-10-23, 00:05:04,VALID,1004.04,VALID,0,VALID,89.3342,VALID,0,VALID,25.2221,VALID,354,VALID,0.966406,
2009-10-23, 00:06:04,VALID,1004.05,VALID,0,VALID,88.9299,VALID,0,VALID,25.2786,VALID,341,VALID,0.592969,
2009-10-23, 00:07:04,VALID,1004.05,VALID,0,VALID,88.64,VALID,0.100563,VALID,25.3176,VALID,342,VALID,0.306641,
2009-10-23, 00:08:04,VALID,1004.04,VALID,0,VALID,88.4721,VALID,0.100563,VALID,25.3565,VALID,7,VALID,0.569922,
2009-10-23, 00:09:04,VALID,1004.05,VALID,0,VALID,88.3348,VALID,0.100563,VALID,25.3546,VALID,4,VALID,0.358594,
2009-10-23, 00:10:04,VALID,1004.04,VALID,0,VALID,88.1441,VALID,0.100563,VALID,25.4149,VALID,282,VALID,0.399219,
2009-10-23, 00:11:04,VALID,1004.05,VALID,0,VALID,87.9839,VALID,0,VALID,25.4149,VALID,332,VALID,0.304297,
2009-10-23, 00:12:04,VALID,1004.05,VALID,0,VALID,87.8237,VALID,0.100563,VALID,25.4558,VALID,360,VALID,0.732031,
2009-10-23, 00:13:04,VALID,1004.02,VALID,0,VALID,87.7398,VALID,0.100563,VALID,25.4734,VALID,358,VALID,0.341406,
2009-10-23, 00:14:04,VALID,1004.05,VALID,0,VALID,87.6787,VALID,0.100563,VALID,25.4734,VALID,358,VALID,0.483984,
2009-10-23, 00:15:04,VALID,1004.04,VALID,0,VALID,87.6482,VALID,0,VALID,25.4734,VALID,332,VALID,0.363281,
2009-10-23, 00:16:04,VALID,1004.04,VALID,0,VALID,87.5795,VALID,0.100563,VALID,25.4734,VALID,335,VALID,0.468359,
2009-10-23, 00:17:04,VALID,1004.03,VALID,0,VALID,87.5872,VALID,0.100563,VALID,25.4539,VALID,341,VALID,0.225391,
2009-10-23, 00:18:04,VALID,1004.04,VALID,0,VALID,87.5719,VALID,0,VALID,25.4539,VALID,353,VALID,0.546094,
2009-10-23, 00:19:04,VALID,1004.03,VALID,0,VALID,87.6101,VALID,0.100563,VALID,25.4344,VALID,360,VALID,0,
2009-10-23, 00:20:04,VALID,1004.05,VALID,0,VALID,87.7169,VALID,0.100563,VALID,25.4149,VALID,337,VALID,0.181641,
2009-10-23, 00:21:04,VALID,1004.03,VALID,0,VALID,87.7932,VALID,0,VALID,25.4169,VALID,11,VALID,0.065625,
2009-10-23, 00:22:04,VALID,1004.02,VALID,0,VALID,87.9152,VALID,0.100563,VALID,25.3741,VALID,312,VALID,0.283203,
2009-10-23, 00:23:04,VALID,1004.03,VALID,0,VALID,88.022,VALID,0.100563,VALID,25.3565,VALID,311,VALID,0.214453,
2009-10-23, 00:24:04,VALID,1003.99,VALID,0,VALID,88.1975,VALID,0.100563,VALID,25.3779,VALID,4,VALID,0.814062,
2009-10-23, 00:25:04,VALID,1003.99,VALID,0,VALID,88.0831,VALID,0,VALID,25.3955,VALID,359,VALID,0.673047,
2009-10-23, 00:26:04,VALID,1003.96,VALID,0,VALID,87.9,VALID,0,VALID,25.4344,VALID,2,VALID,0.379297,
2009-10-23, 00:27:04,VALID,1003.96,VALID,0,VALID,87.7245,VALID,0,VALID,25.4539,VALID,342,VALID,0.715625,
2009-10-23, 00:28:04,VALID,1003.95,VALID,0,VALID,87.6558,VALID,0,VALID,25.4753,VALID,351,VALID,0.708203,
2009-10-23, 00:29:04,VALID,1003.92,VALID,0,VALID,87.5261,VALID,0,VALID,25.4948,VALID,351,VALID,0.410547,
2009-10-23, 00:30:04,VALID,1003.92,VALID,0,VALID,87.5338,VALID,0,VALID,25.5162,VALID,351,VALID,0.132813,
2009-10-23, 00:31:04,VALID,1003.86,VALID,0,VALID,87.6253,VALID,0,VALID,25.4558,VALID,351,VALID,0.0171875,
2009-10-23, 00:32:04,VALID,1003.85,VALID,0,VALID,87.7932,VALID,0,VALID,25.4558,VALID,358,VALID,0.515625,
2009-10-23, 00:33:04,VALID,1003.86,VALID,0,VALID,87.7626,VALID,0,VALID,25.4753,VALID,4,VALID,0.397656,
2009-10-23, 00:34:04,VALID,1003.85,VALID,0,VALID,87.7855,VALID,0,VALID,25.4558,VALID,360,VALID,0.539453,
2009-10-23, 00:35:04,VALID,1003.85,VALID,0,VALID,87.7398,VALID,0,VALID,25.4948,VALID,2,VALID,0.594531,
2009-10-23, 00:36:04,VALID,1003.84,VALID,0,VALID,87.6177,VALID,0,VALID,25.5142,VALID,344,VALID,0.565625,
2009-10-23, 00:37:04,VALID,1003.87,VALID,0,VALID,87.4804,VALID,0,VALID,25.5123,VALID,351,VALID,0.290625,
2009-10-23, 00:38:04,VALID,1003.87,VALID,0,VALID,87.4041,VALID,0,VALID,25.5941,VALID,353,VALID,0.359766,
2009-10-23, 00:39:04,VALID,1003.88,VALID,0,VALID,87.2439,VALID,0,VALID,25.5707,VALID,346,VALID,0.652734,
2009-10-23, 00:40:04,VALID,1003.86,VALID,0,VALID,87.1066,VALID,0,VALID,25.5902,VALID,330,VALID,0.908203,
2009-10-23, 00:41:04,VALID,1003.84,VALID,0,VALID,86.9387,VALID,0,VALID,25.67,VALID,14,VALID,0.963281,
2009-10-23, 00:42:04,VALID,1003.84,VALID,0,VALID,86.7175,VALID,0,VALID,25.7285,VALID,354,VALID,0.765234,
2009-10-23, 00:43:04,VALID,1003.8,VALID,0,VALID,86.4962,VALID,0.100563,VALID,25.7869,VALID,356,VALID,0.557031,
2009-10-23, 00:44:04,VALID,1003.75,VALID,0,VALID,86.5039,VALID,0,VALID,25.746,VALID,328,VALID,0.804688,
2009-10-23, 00:45:04,VALID,1003.76,VALID,0,VALID,86.5954,VALID,0,VALID,25.746,VALID,336,VALID,0.326562,
2009-10-23, 00:46:04,VALID,1003.74,VALID,0,VALID,86.7099,VALID,0,VALID,25.7285,VALID,336,VALID,0.262109,
2009-10-23, 00:47:04,VALID,1003.74,VALID,0,VALID,86.9311,VALID,0,VALID,25.6486,VALID,350,VALID,0.345703,
2009-10-23, 00:48:04,VALID,1003.72,VALID,0,VALID,87.1447,VALID,0.100563,VALID,25.6292,VALID,3,VALID,0.372656,
2009-10-23, 00:49:04,VALID,1003.74,VALID,0,VALID,87.2668,VALID,0,VALID,25.6097,VALID,3,VALID,0.419922,
2009-10-23, 00:50:04,VALID,1003.72,VALID,0,VALID,87.2439,VALID,0,VALID,25.6292,VALID,273,VALID,0.410937,
2009-10-23, 00:51:04,VALID,1003.68,VALID,0,VALID,87.2057,VALID,0,VALID,25.6486,VALID,2,VALID,0.589844,
2009-10-23, 00:52:04,VALID,1003.67,VALID,0,VALID,87.0608,VALID,0.100563,VALID,25.709,VALID,351,VALID,1.00742,
2009-10-23, 00:53:04,VALID,1003.65,VALID,0,VALID,86.7709,VALID,0,VALID,25.7655,VALID,5,VALID,0.583594,
2009-10-23, 00:54:04,VALID,1003.65,VALID,0,VALID,86.6183,VALID,0,VALID,25.746,VALID,18,VALID,0.453516,
2009-10-23, 00:55:04,VALID,1003.63,VALID,0,VALID,86.6488,VALID,0,VALID,25.7265,VALID,351,VALID,0.223438,
2009-10-23, 00:56:04,VALID,1003.63,VALID,0,VALID,86.7709,VALID,0,VALID,25.7071,VALID,357,VALID,0.457422,
2009-10-23, 00:57:04,VALID,1003.61,VALID,0,VALID,86.9387,VALID,0,VALID,25.6681,VALID,37,VALID,0.379297,
2009-10-23, 00:58:04,VALID,1003.6,VALID,0,VALID,87.0074,VALID,0,VALID,25.672,VALID,1,VALID,0.372656,
2009-10-23, 00:59:04,VALID,1003.58,VALID,0,VALID,86.9921,VALID,0,VALID,25.6506,VALID,351,VALID,0.453906,
2009-10-23, 01:00:04,VALID,1003.57,VALID,0,VALID,87.0455,VALID,0,VALID,25.6525,VALID,351,VALID,0.253125,
2009-10-23, 01:01:04,VALID,1003.55,VALID,0,VALID,87.1371,VALID,0,VALID,25.6311,VALID,330,VALID,0.483984,
2009-10-23, 01:02:04,VALID,1003.55,VALID,0,VALID,87.1142,VALID,0,VALID,25.6506,VALID,338,VALID,0.638672,
2009-10-23, 01:03:04,VALID,1003.53,VALID,0,VALID,87.0684,VALID,0,VALID,25.6506,VALID,344,VALID,0.701953,
2009-10-23, 01:04:04,VALID,1003.49,VALID,0,VALID,86.9235,VALID,0,VALID,25.7304,VALID,2,VALID,0.808203,
2009-10-23, 01:05:04,VALID,1003.47,VALID,0,VALID,86.687,VALID,0,VALID,25.7285,VALID,345,VALID,0.725391,
2009-10-23, 01:06:04,VALID,1003.44,VALID,0,VALID,86.6565,VALID,0,VALID,25.7694,VALID,321,VALID,0.374609,
2009-10-23, 01:07:04,VALID,1003.46,VALID,0,VALID,86.7099,VALID,0,VALID,25.748,VALID,340,VALID,0.772266,
2009-10-23, 01:08:04,VALID,1003.42,VALID,0,VALID,86.7404,VALID,0,VALID,25.748,VALID,349,VALID,0.416016,
2009-10-23, 01:09:04,VALID,1003.41,VALID,0,VALID,86.7861,VALID,0,VALID,25.7071,VALID,340,VALID,0.318359,
2009-10-23, 01:10:04,VALID,1003.46,VALID,0,VALID,86.8701,VALID,0,VALID,25.709,VALID,306,VALID,0.560938,
2009-10-23, 01:11:04,VALID,1003.45,VALID,0,VALID,86.8319,VALID,0,VALID,25.7285,VALID,306,VALID,0.318359,
2009-10-23, 01:12:04,VALID,1003.45,VALID,0,VALID,86.7556,VALID,0,VALID,25.748,VALID,337,VALID,0.88125,
2009-10-23, 01:13:04,VALID,1003.45,VALID,0,VALID,86.6107,VALID,0,VALID,25.7869,VALID,351,VALID,0.540234,
2009-10-23, 01:14:04,VALID,1003.44,VALID,0,VALID,86.5954,VALID,0,VALID,25.7869,VALID,334,VALID,0.938281,
2009-10-23, 01:15:04,VALID,1003.46,VALID,0,VALID,86.6107,VALID,0,VALID,25.8064,VALID,10,VALID,0.355469,
2009-10-23, 01:16:04,VALID,1003.48,VALID,0,VALID,86.5649,VALID,0,VALID,25.8278,VALID,10,VALID,0.422266,
2009-10-23, 01:17:04,VALID,1003.47,VALID,0,VALID,86.6031,VALID,0,VALID,25.8278,VALID,299,VALID,0.119922,
2009-10-23, 01:18:04,VALID,1003.44,VALID,0,VALID,86.7175,VALID,0,VALID,25.8278,VALID,348,VALID,0.526172,
2009-10-23, 01:19:04,VALID,1003.45,VALID,0,VALID,86.6336,VALID,0,VALID,25.8064,VALID,3,VALID,0.507813,
2009-10-23, 01:20:04,VALID,1003.45,VALID,0,VALID,86.4886,VALID,0,VALID,25.8453,VALID,2,VALID,0.514453,
2009-10-23, 01:21:04,VALID,1003.4,VALID,0,VALID,86.4657,VALID,0,VALID,25.8453,VALID,352,VALID,0.624219,
2009-10-23, 01:22:04,VALID,1003.39,VALID,0,VALID,86.5954,VALID,0,VALID,25.8473,VALID,350,VALID,0.617188,
2009-10-23, 01:23:04,VALID,1003.35,VALID,0,VALID,86.7709,VALID,0,VALID,25.7674,VALID,350,VALID,0.329688,
2009-10-23, 01:24:04,VALID,1003.36,VALID,0,VALID,86.9464,VALID,0,VALID,25.7285,VALID,350,VALID,0.133203,
2009-10-23, 01:25:04,VALID,1003.33,VALID,0,VALID,87.1981,VALID,0,VALID,25.6895,VALID,350,VALID,0.196094,
2009-10-23, 01:26:04,VALID,1003.33,VALID,0,VALID,87.5109,VALID,0,VALID,25.6311,VALID,355,VALID,0.451562,
2009-10-23, 01:27:04,VALID,1003.31,VALID,0,VALID,87.755,VALID,0,VALID,25.6116,VALID,345,VALID,0.928125,
2009-10-23, 01:28:04,VALID,1003.3,VALID,0,VALID,87.6406,VALID,0,VALID,25.6292,VALID,344,VALID,0.58125,
2009-10-23, 01:29:04,VALID,1003.3,VALID,0,VALID,87.6024,VALID,0,VALID,25.6486,VALID,345,VALID,0.430859,
2009-10-23, 01:30:04,VALID,1003.28,VALID,0,VALID,87.6101,VALID,0,VALID,25.6506,VALID,345,VALID,0.247266,
2009-10-23, 01:31:04,VALID,1003.26,VALID,0,VALID,87.7398,VALID,0,VALID,25.5902,VALID,345,VALID,0.375391,
2009-10-23, 01:32:04,VALID,1003.23,VALID,0,VALID,88.0525,VALID,0,VALID,25.5727,VALID,5,VALID,1.05313,
2009-10-23, 01:33:04,VALID,1003.2,VALID,0,VALID,87.9457,VALID,0,VALID,25.5318,VALID,358,VALID,0.3,
2009-10-23, 01:34:04,VALID,1003.19,VALID,0,VALID,88.0678,VALID,0,VALID,25.4753,VALID,358,VALID,0.30625,
2009-10-23, 01:35:04,VALID,1003.19,VALID,0,VALID,88.4187,VALID,0,VALID,25.4149,VALID,358,VALID,0.25625,
2009-10-23, 01:36:04,VALID,1003.18,VALID,0,VALID,88.7468,VALID,0,VALID,25.3974,VALID,358,VALID,0.382422,
2009-10-23, 01:37:04,VALID,1003.14,VALID,0,VALID,88.9375,VALID,0,VALID,25.3584,VALID,358,VALID,0.332422,
2009-10-23, 01:38:04,VALID,1003.13,VALID,0,VALID,89.1358,VALID,0,VALID,25.3,VALID,358,VALID,0.330859,
2009-10-23, 01:39:04,VALID,1003.11,VALID,0,VALID,89.4791,VALID,0,VALID,25.2592,VALID,339,VALID,0.427344,
2009-10-23, 01:40:04,VALID,1003.12,VALID,0,VALID,89.6851,VALID,0,VALID,25.2007,VALID,341,VALID,0.359766,
2009-10-23, 01:41:04,VALID,1003.1,VALID,0,VALID,89.8148,VALID,0,VALID,25.2007,VALID,341,VALID,0.0101562,
2009-10-23, 01:42:04,VALID,1003.12,VALID,0,VALID,90.0208,VALID,0,VALID,25.2592,VALID,343,VALID,0.760547,
2009-10-23, 01:43:04,VALID,1003.06,VALID,0,VALID,89.708,VALID,0,VALID,25.3195,VALID,352,VALID,0.469141,
2009-10-23, 01:44:04,VALID,1003.03,VALID,0,VALID,89.5783,VALID,0,VALID,25.3565,VALID,348,VALID,0.630469,
2009-10-23, 01:45:04,VALID,1003,VALID,0,VALID,89.2732,VALID,0,VALID,25.4169,VALID,352,VALID,0.353516,
2009-10-23, 01:46:04,VALID,1003,VALID,0,VALID,88.9909,VALID,0,VALID,25.4558,VALID,345,VALID,0.759766,
2009-10-23, 01:47:04,VALID,1002.95,VALID,0,VALID,88.8002,VALID,0,VALID,25.4539,VALID,21,VALID,0.0496094,
2009-10-23, 01:48:04,VALID,1002.95,VALID,0,VALID,88.701,VALID,0,VALID,25.4753,VALID,21,VALID,0.279297,
2009-10-23, 01:49:04,VALID,1002.94,VALID,0,VALID,88.5408,VALID,0,VALID,25.4149,VALID,21,VALID,0.416016,
2009-10-23, 01:50:04,VALID,1002.89,VALID,0,VALID,88.7391,VALID,0,VALID,25.3779,VALID,22,VALID,0.210547,
2009-10-23, 01:51:04,VALID,1002.93,VALID,0,VALID,88.8841,VALID,0.100563,VALID,25.337,VALID,22,VALID,0.252734,
2009-10-23, 01:52:04,VALID,1002.93,VALID,0,VALID,88.9756,VALID,0,VALID,25.2981,VALID,22,VALID,0.0671875,
2009-10-23, 01:53:04,VALID,1002.9,VALID,0,VALID,89.1587,VALID,0,VALID,25.2786,VALID,22,VALID,0,
2009-10-23, 01:54:04,VALID,1002.91,VALID,0,VALID,89.38,VALID,0,VALID,25.2397,VALID,333,VALID,0.6,
2009-10-23, 01:55:04,VALID,1002.89,VALID,0,VALID,89.4639,VALID,0,VALID,25.3,VALID,304,VALID,0.139062,
2009-10-23, 01:56:04,VALID,1002.84,VALID,0,VALID,89.3571,VALID,0,VALID,25.3,VALID,316,VALID,0.368359,
2009-10-23, 01:57:04,VALID,1002.8,VALID,0,VALID,89.3342,VALID,0,VALID,25.339,VALID,316,VALID,0.469141,
2009-10-23, 01:58:04,VALID,1002.8,VALID,0,VALID,88.9909,VALID,0,VALID,25.339,VALID,16,VALID,0.644141,
2009-10-23, 01:59:04,VALID,1002.77,VALID,0,VALID,89.3189,VALID,0,VALID,25.2981,VALID,324,VALID,0.851953,
2009-10-23, 02:00:04,VALID,1002.76,VALID,0,VALID,89.1969,VALID,0,VALID,25.3176,VALID,337,VALID,0.408984,
2009-10-23, 02:01:04,VALID,1002.75,VALID,0,VALID,89.1358,VALID,0,VALID,25.339,VALID,336,VALID,0.193359,
2009-10-23, 02:02:04,VALID,1002.75,VALID,0,VALID,89.1511,VALID,0,VALID,25.3195,VALID,336,VALID,0,
2009-10-23, 02:03:04,VALID,1002.75,VALID,0,VALID,89.296,VALID,0,VALID,25.2592,VALID,329,VALID,0.226953,
2009-10-23, 02:04:04,VALID,1002.73,VALID,0,VALID,89.3952,VALID,0,VALID,25.2202,VALID,329,VALID,0.153906,
2009-10-23, 02:05:04,VALID,1002.71,VALID,0,VALID,89.4486,VALID,0,VALID,25.2221,VALID,329,VALID,0.319141,
2009-10-23, 02:06:04,VALID,1002.7,VALID,0,VALID,89.4944,VALID,0,VALID,25.1637,VALID,23,VALID,0.309766,
2009-10-23, 02:07:04,VALID,1002.67,VALID,0,VALID,89.6927,VALID,0,VALID,25.0858,VALID,23,VALID,0.00585938,
2009-10-23, 02:08:04,VALID,1002.67,VALID,0,VALID,89.9521,VALID,0,VALID,24.9866,VALID,23,VALID,0.065625,
2009-10-23, 02:09:04,VALID,1002.64,VALID,0,VALID,90.1963,VALID,0,VALID,24.9087,VALID,23,VALID,0.336328,
2009-10-23, 02:10:04,VALID,1002.68,VALID,0,VALID,90.509,VALID,0,VALID,24.8503,VALID,23,VALID,0,
2009-10-23, 02:11:04,VALID,1002.7,VALID,0,VALID,90.8218,VALID,0,VALID,24.8522,VALID,23,VALID,0,
2009-10-23, 02:12:04,VALID,1002.72,VALID,0,VALID,90.9363,VALID,0,VALID,24.8327,VALID,23,VALID,0.0679687,
2009-10-23, 02:13:04,VALID,1002.73,VALID,0,VALID,91.0278,VALID,0,VALID,24.7529,VALID,23,VALID,0.28125,
2009-10-23, 02:14:04,VALID,1002.74,VALID,0,VALID,91.3787,VALID,0,VALID,24.7761,VALID,11,VALID,0.419922,
2009-10-23, 02:15:04,VALID,1002.73,VALID,0,VALID,91.4474,VALID,0,VALID,24.7353,VALID,11,VALID,0.431641,
2009-10-23, 02:16:04,VALID,1002.77,VALID,0,VALID,91.4779,VALID,0,VALID,24.6945,VALID,10,VALID,0.194922,
2009-10-23, 02:17:04,VALID,1002.76,VALID,0,VALID,91.6229,VALID,0,VALID,24.7159,VALID,10,VALID,0.39375,
2009-10-23, 02:18:04,VALID,1002.81,VALID,0,VALID,91.6991,VALID,0,VALID,24.675,VALID,10,VALID,0.171094,
2009-10-23, 02:19:04,VALID,1002.82,VALID,0,VALID,91.6686,VALID,0,VALID,24.6556,VALID,10,VALID,0.214453,
2009-10-23, 02:20:04,VALID,1002.78,VALID,0,VALID,91.5847,VALID,0,VALID,24.6166,VALID,10,VALID,0.289453,
2009-10-23, 02:21:04,VALID,1002.8,VALID,0,VALID,91.7449,VALID,0,VALID,24.5582,VALID,10,VALID,0.228125,
2009-10-23, 02:22:04,VALID,1002.78,VALID,0,VALID,91.9204,VALID,0,VALID,24.5212,VALID,10,VALID,0.225,
2009-10-23, 02:23:04,VALID,1002.76,VALID,0,VALID,92.0958,VALID,0,VALID,24.4609,VALID,10,VALID,0.286328,
2009-10-23, 02:24:04,VALID,1002.75,VALID,0,VALID,92.2637,VALID,0,VALID,24.4433,VALID,10,VALID,0.191406,
2009-10-23, 02:25:04,VALID,1002.76,VALID,0,VALID,92.4468,VALID,0,VALID,24.4043,VALID,10,VALID,0.0917969,
2009-10-23, 02:26:04,VALID,1002.76,VALID,0,VALID,92.7062,VALID,0,VALID,24.4043,VALID,10,VALID,0.00820312,
2009-10-23, 02:27:04,VALID,1002.79,VALID,0,VALID,92.8358,VALID,0,VALID,24.383,VALID,10,VALID,0,
2009-10-23, 02:28:04,VALID,1002.74,VALID,0,VALID,92.813,VALID,0,VALID,24.383,VALID,10,VALID,0.346094,
2009-10-23, 02:29:04,VALID,1002.72,VALID,0,VALID,92.7443,VALID,0.100563,VALID,24.3441,VALID,10,VALID,0.429297,
2009-10-23, 02:30:04,VALID,1002.69,VALID,0,VALID,92.8282,VALID,0,VALID,24.3654,VALID,10,VALID,0.425,
2009-10-23, 02:31:04,VALID,1002.69,VALID,0,VALID,92.8511,VALID,0.100563,VALID,24.2839,VALID,10,VALID,0.434375,
2009-10-23, 02:32:04,VALID,1002.62,VALID,0,VALID,92.874,VALID,0,VALID,24.2662,VALID,10,VALID,0.367578,
2009-10-23, 02:33:04,VALID,1002.61,VALID,0,VALID,92.9503,VALID,0,VALID,24.2486,VALID,10,VALID,0.354688,
2009-10-23, 02:34:05,VALID,1002.59,VALID,0,VALID,93.0342,VALID,0.100563,VALID,24.1884,VALID,10,VALID,0.367578,
2009-10-23, 02:35:05,VALID,1002.6,VALID,0,VALID,93.1563,VALID,0.100563,VALID,24.1689,VALID,10,VALID,0.149609,
2009-10-23, 02:36:04,VALID,1002.58,VALID,0,VALID,93.2859,VALID,0,VALID,24.1494,VALID,10,VALID,0,
2009-10-23, 02:37:05,VALID,1002.6,VALID,0,VALID,93.3317,VALID,0.100563,VALID,24.13,VALID,10,VALID,0,
2009-10-23, 02:38:05,VALID,1002.56,VALID,0,VALID,93.3394,VALID,0,VALID,24.091,VALID,10,VALID,0,
2009-10-23, 02:39:05,VALID,1002.58,VALID,0,VALID,93.3928,VALID,0,VALID,24.0521,VALID,10,VALID,0,
2009-10-23, 02:40:05,VALID,1002.58,VALID,0,VALID,93.5148,VALID,0,VALID,24.0734,VALID,10,VALID,0,
2009-10-23, 02:41:05,VALID,1002.59,VALID,0,VALID,93.6216,VALID,0.100563,VALID,24.0521,VALID,10,VALID,0,
2009-10-23, 02:42:05,VALID,1002.61,VALID,0,VALID,93.7666,VALID,0.100563,VALID,24.0521,VALID,10,VALID,0,
2009-10-23, 02:43:05,VALID,1002.62,VALID,0,VALID,93.8581,VALID,0,VALID,24.0521,VALID,10,VALID,0,
2009-10-23, 02:44:05,VALID,1002.65,VALID,0,VALID,93.9039,VALID,0,VALID,24.0734,VALID,9,VALID,0,
2009-10-23, 02:45:05,VALID,1002.63,VALID,0,VALID,94.1404,VALID,0.100563,VALID,24.1494,VALID,326,VALID,0.211328,
2009-10-23, 02:46:05,VALID,1002.7,VALID,0,VALID,94.1862,VALID,0.100563,VALID,24.1884,VALID,326,VALID,0,
2009-10-23, 02:47:05,VALID,1002.71,VALID,0,VALID,94.1328,VALID,0,VALID,24.2097,VALID,326,VALID,0,
2009-10-23, 02:48:05,VALID,1002.69,VALID,0,VALID,94.0488,VALID,0.100563,VALID,24.1884,VALID,326,VALID,0,
2009-10-23, 02:49:05,VALID,1002.71,VALID,0,VALID,93.9497,VALID,0,VALID,24.1689,VALID,326,VALID,0,
2009-10-23, 02:50:05,VALID,1002.71,VALID,0,VALID,93.8963,VALID,0.100563,VALID,24.1494,VALID,326,VALID,0,
2009-10-23, 02:51:05,VALID,1002.72,VALID,0,VALID,93.8963,VALID,0.100563,VALID,24.1494,VALID,326,VALID,0,
2009-10-23, 02:52:05,VALID,1002.76,VALID,0,VALID,93.8276,VALID,0.100563,VALID,24.1494,VALID,326,VALID,0,
2009-10-23, 02:53:05,VALID,1002.75,VALID,0,VALID,93.8429,VALID,0.100563,VALID,24.1494,VALID,334,VALID,0.0207031,
2009-10-23, 02:54:05,VALID,1002.77,VALID,0,VALID,93.9497,VALID,0,VALID,24.2078,VALID,350,VALID,0.426562,
2009-10-23, 02:55:05,VALID,1002.78,VALID,0,VALID,93.8123,VALID,0,VALID,24.1884,VALID,350,VALID,0.249609,
2009-10-23, 02:56:05,VALID,1002.78,VALID,0,VALID,93.7437,VALID,0.100563,VALID,24.1494,VALID,350,VALID,0.0226563,
2009-10-23, 02:57:05,VALID,1002.79,VALID,0,VALID,93.7437,VALID,0,VALID,24.1476,VALID,350,VALID,0.132813,
2009-10-23, 02:58:05,VALID,1002.78,VALID,0,VALID,93.7895,VALID,0.100563,VALID,24.2097,VALID,350,VALID,0.183203,
2009-10-23, 02:59:05,VALID,1002.75,VALID,0,VALID,93.7818,VALID,0,VALID,24.1884,VALID,350,VALID,0.226563,
2009-10-23, 03:00:05,VALID,1002.73,VALID,0,VALID,93.8123,VALID,0.100563,VALID,24.1884,VALID,350,VALID,0.0550781,
2009-10-23, 03:01:05,VALID,1002.74,VALID,0,VALID,93.8123,VALID,0.100563,VALID,24.1671,VALID,350,VALID,0.597656,
2009-10-23, 03:02:05,VALID,1002.72,VALID,0,VALID,93.7055,VALID,0,VALID,24.1689,VALID,350,VALID,0.5,
2009-10-23, 03:03:05,VALID,1002.69,VALID,0,VALID,93.6216,VALID,0,VALID,24.13,VALID,356,VALID,0.540234,
2009-10-23, 03:04:05,VALID,1002.7,VALID,0,VALID,93.5987,VALID,0.100563,VALID,24.1105,VALID,16,VALID,0.676172,
2009-10-23, 03:05:05,VALID,1002.72,VALID,0,VALID,93.614,VALID,0.100563,VALID,24.0716,VALID,16,VALID,0.443359,
2009-10-23, 03:06:05,VALID,1002.73,VALID,0,VALID,93.6292,VALID,0,VALID,24.0521,VALID,16,VALID,0.358594,
2009-10-23, 03:07:05,VALID,1002.74,VALID,0,VALID,93.6598,VALID,0.100563,VALID,24.0132,VALID,16,VALID,0.258984,
2009-10-23, 03:08:05,VALID,1002.76,VALID,0,VALID,93.7589,VALID,0,VALID,24.0132,VALID,16,VALID,0.333203,
2009-10-23, 03:09:05,VALID,1002.75,VALID,0,VALID,93.8581,VALID,0.100563,VALID,24.0132,VALID,16,VALID,0.397656,
2009-10-23, 03:10:05,VALID,1002.78,VALID,0,VALID,93.8734,VALID,0.100563,VALID,23.9937,VALID,16,VALID,0.320313,
2009-10-23, 03:11:05,VALID,1002.76,VALID,0,VALID,93.942,VALID,0.100563,VALID,23.9937,VALID,16,VALID,0.396094,
2009-10-23, 03:12:05,VALID,1002.75,VALID,0,VALID,94.0336,VALID,0,VALID,24.0345,VALID,16,VALID,0.239453,
2009-10-23, 03:13:05,VALID,1002.77,VALID,0,VALID,94.1251,VALID,0,VALID,24.0132,VALID,16,VALID,0.183594,
2009-10-23, 03:14:05,VALID,1002.78,VALID,0,VALID,94.1709,VALID,0.100563,VALID,24.0132,VALID,16,VALID,0.108203,
2009-10-23, 03:15:05,VALID,1002.77,VALID,0,VALID,94.1709,VALID,0.100563,VALID,24.0132,VALID,16,VALID,0.191797,
2009-10-23, 03:16:05,VALID,1002.77,VALID,0,VALID,94.1938,VALID,0.100563,VALID,24.0345,VALID,16,VALID,0.240625,
2009-10-23, 03:17:05,VALID,1002.8,VALID,0,VALID,94.2014,VALID,0.100563,VALID,23.9937,VALID,16,VALID,0.252344,
2009-10-23, 03:18:05,VALID,1002.79,VALID,0,VALID,94.2167,VALID,0.100563,VALID,23.9937,VALID,16,VALID,0.330859,
2009-10-23, 03:19:05,VALID,1002.8,VALID,0,VALID,94.209,VALID,0.100563,VALID,23.9742,VALID,16,VALID,0.341797,
2009-10-23, 03:20:05,VALID,1002.84,VALID,0,VALID,94.1709,VALID,0.100563,VALID,23.9548,VALID,16,VALID,0.396484,
2009-10-23, 03:21:05,VALID,1002.81,VALID,0,VALID,94.1785,VALID,0,VALID,23.9548,VALID,16,VALID,0.275391,
2009-10-23, 03:22:05,VALID,1002.81,VALID,0,VALID,94.2167,VALID,0.100563,VALID,23.9353,VALID,16,VALID,0.346484,
2009-10-23, 03:23:05,VALID,1002.83,VALID,0,VALID,94.293,VALID,0.100563,VALID,23.9548,VALID,16,VALID,0.288281,
2009-10-23, 03:24:05,VALID,1002.8,VALID,0,VALID,94.3311,VALID,0.100563,VALID,23.9548,VALID,16,VALID,0.412109,
2009-10-23, 03:25:05,VALID,1002.8,VALID,0,VALID,94.3616,VALID,0.100563,VALID,23.9548,VALID,16,VALID,0.364844,
2009-10-23, 03:26:05,VALID,1002.78,VALID,0,VALID,94.3921,VALID,0.100563,VALID,23.9742,VALID,16,VALID,0.420703,
2009-10-23, 03:27:05,VALID,1002.78,VALID,0,VALID,94.4227,VALID,0,VALID,23.9335,VALID,16,VALID,0.523047,
2009-10-23, 03:28:05,VALID,1002.77,VALID,0,VALID,94.4761,VALID,0,VALID,23.9937,VALID,16,VALID,0.369531,
2009-10-23, 03:29:05,VALID,1002.74,VALID,0,VALID,94.5142,VALID,0,VALID,23.9742,VALID,16,VALID,0.305078,
2009-10-23, 03:30:05,VALID,1002.72,VALID,0,VALID,94.5371,VALID,0,VALID,23.9937,VALID,16,VALID,0.446484,
2009-10-23, 03:31:05,VALID,1002.73,VALID,0,VALID,94.6134,VALID,0,VALID,24.0326,VALID,16,VALID,0.174609,
2009-10-23, 03:32:05,VALID,1002.68,VALID,0,VALID,94.6744,VALID,0,VALID,24.0521,VALID,16,VALID,0.276563,
2009-10-23, 03:33:05,VALID,1002.69,VALID,0,VALID,94.6973,VALID,0,VALID,24.0521,VALID,16,VALID,0.452734,
2009-10-23, 03:34:05,VALID,1002.68,VALID,0,VALID,94.6744,VALID,0,VALID,24.0326,VALID,16,VALID,0.304688,
2009-10-23, 03:35:05,VALID,1002.65,VALID,0,VALID,94.6439,VALID,0,VALID,23.9937,VALID,16,VALID,0.303125,
2009-10-23, 03:36:05,VALID,1002.67,VALID,0,VALID,94.6515,VALID,0.100563,VALID,23.9742,VALID,16,VALID,0.353125,
2009-10-23, 03:37:05,VALID,1002.67,VALID,0,VALID,94.6439,VALID,0,VALID,23.9742,VALID,16,VALID,0.273828,
2009-10-23, 03:38:05,VALID,1002.64,VALID,0,VALID,94.6744,VALID,0,VALID,23.9937,VALID,16,VALID,0.288672,
2009-10-23, 03:39:05,VALID,1002.65,VALID,0,VALID,94.6973,VALID,0.100563,VALID,24.0132,VALID,16,VALID,0.0523437,
2009-10-23, 03:40:05,VALID,1002.67,VALID,0,VALID,94.7125,VALID,0,VALID,23.9937,VALID,16,VALID,0.285547,
2009-10-23, 03:41:05,VALID,1002.69,VALID,0,VALID,94.7431,VALID,0.100563,VALID,24.0345,VALID,16,VALID,0.0921875,
2009-10-23, 03:42:05,VALID,1002.69,VALID,0,VALID,94.7507,VALID,0,VALID,24.0326,VALID,16,VALID,0.145703,
2009-10-23, 03:43:05,VALID,1002.69,VALID,0,VALID,94.7583,VALID,0,VALID,24.0539,VALID,16,VALID,0,